Location: Neri
(32.3638°N, 97.7750°W)
Time: 22:53:00
(UTC+00:00)

Daily predictions for brighter satellites

Satellite Brightness Start Highest point End
(mag) Time Altitude Azimuth Time Altitude Azimuth Time Altitude Azimuth
Cosmos 2082 Rocket 4.1 12:06:06 12° NNW 12:06:06 12° NNW 12:06:43 10° NNW
BREEZE-M DEB (TANK) 2.5 12:00:26 11° SW 12:03:57 84° NW 12:06:17 10° NE
SL-24 R/B 4.4 12:00:03 10° N 12:04:57 49° WNW 12:09:13 10° SSW
Cosmos 1892 Rocket 3.8 12:04:45 10° SSW 12:08:53 43° W 12:13:04 10° N
SL-16 R/B 2.9 12:04:06 10° N 12:09:39 53° ENE 12:15:09 10° SE
SWAS 4.2 12:07:26 16° NNW 12:10:39 84° WSW 12:14:39 10° SSE
Cosmos 1937 Rocket 3.4 12:08:27 10° NNW 12:13:33 72° WSW 12:18:38 10° S
Cosmos 372 Rocket 4.5 12:11:44 18° NW 12:14:53 36° W 12:19:28 10° SSW
COSMO-SKYMED 1 2.4 12:19:12 10° S 12:23:16 65° W 12:27:21 10° NNW
OAO 2 Rocket 3.4 12:20:43 10° WSW 12:25:55 83° SSE 12:31:02 10° ENE
Cosmos-2242 2.9 12:24:08 10° N 12:28:21 86° E 12:32:31 10° S
Cosmos 1092 Rocket 4.2 12:23:41 10° SSW 12:29:44 49° W 12:35:46 10° N
Cosmos 1980 Rocket 3.7 12:28:37 14° WNW 12:30:21 16° W 12:33:35 10° SW
Cosmos 1814 Rocket 4.0 12:26:03 10° SSW 12:31:11 63° WNW 12:36:24 10° N
Cosmos 2278 3.9 12:27:44 10° NNW 12:33:24 76° ENE 12:39:00 10° SSE
BREEZE-M DEB (TANK) 4.5 12:31:28 10° NNW 12:34:23 21° NNE 12:40:11 10° E
ATLAS 2AS CENTAUR R/B 3.0 12:28:54 10° SSW 12:36:03 79° ESE 12:43:00 10° NNE
Cosmos 1553 Rocket 4.5 12:29:56 10° N 12:36:18 69° E 12:42:40 10° SSE
CZ-2D R/B 4.4 12:35:41 10° NNE 12:38:40 38° E 12:41:37 10° S
Cosmos 405 Rocket 2.2 12:35:37 10° SSW 12:38:48 64° W 12:42:03 10° N
Centaur AC-119 4.0 12:35:01 10° WSW 12:40:13 41° S 12:44:53 10° ESE
IRIDIUM 103 4.3 12:35:05 10° S 12:40:18 84° W 12:45:32 10° N
CBERS-1 4.0 12:37:55 10° N 12:42:58 67° WNW 12:47:59 10° SSW
Cosmos 1602 Rocket 4.2 12:38:46 10° S 12:43:06 61° E 12:47:29 10° NNE
CORIOLIS 4.5 12:37:46 10° NNE 12:43:10 74° ESE 12:48:33 10° S
COSMOS 2455 3.6 12:38:54 10° NW 12:44:08 32° WSW 12:49:21 10° SSW
CZ-3 R/B 3.6 12:33:44 10° W 12:45:54 26° SW 12:51:21 10° S
Tiangong -2.0 12:46:34 10° WNW 12:49:47 73° SSW 12:53:00 10° SE
OAO 3 Copernicus 4.4 12:45:56 10° W 12:50:55 65° N 12:55:54 10° ENE
Cosmos 2058 Rocket 3.4 12:46:57 10° NNW 12:51:08 43° W 12:55:16 10° SSW
MOS 1 Rocket 4.4 12:49:04 10° NNE 12:54:20 58° E 12:59:25 10° S
Cosmos 1833 4.4 12:51:10 10° SW 12:56:37 51° WNW 13:02:08 10° N
Cosmos 1980 Rocket 3.2 23:44:18 10° SSE 23:48:54 26° ESE 23:53:29 10° NE
Cosmos 2208 Rocket 4.1 23:43:50 10° N 23:48:55 55° ENE 23:54:00 10° SSE
Hubble Space Telescope 2.7 23:48:10 10° SSW 23:50:48 18° SSE 23:53:28 10° ESE
Intercosmos 24 3.8 23:47:26 10° N 23:51:00 80° W 23:54:45 10° S
